Grand Marais, MN

6:01 AM CST on January 18, 2018 (GMT -0600)
Grand Marais

Weather History for KGNA - October, 2012

Change the Weather History Date:

Monday, October 1, 2012

  Actual Average (KCKC) Record (KCKC)
Temperature  
Mean Temperature 56 °F -  
Max Temperature 69 °F 52 °F 71 °F (2000)
Min Temperature 42 °F 35 °F 19 °F (1997)
Degree Days  
Heating Degree Days 10    
Growing Degree Days 6 (Base 50)    
Moisture  
Dew Point 45 °F    
Average Humidity 73    
Maximum Humidity 90    
Minimum Humidity 49    
Precipitation  
Precipitation 0.00 in - - ()
Sea Level Pressure  
Sea Level Pressure 29.85 in    
Wind  
Wind Speed 4 mph (NNW)    
Max Wind Speed 12 mph    
Max Gust Speed 29 mph    
Averages and records for this station are not official NWS values.
T = Trace of Precipitation, MM = Missing Value Source: NWS Daily Summary

Daily Weather History Graph

Daily Weather History Graph

Search for Another Location

Airport or City:

Trip Planner

Search our weather history database for the weather conditions in past years. The results will help you decide how hot, cold, wet, or windy it might be!

Date:

Astronomy

Oct. 01, 2012 Rise Set
Actual Time 7:01 AM CDT 6:39 PM CDT
Civil Twilight 6:30 AM CDT 7:10 PM CDT
Nautical Twilight 5:54 AM CDT 7:46 PM CDT
Astronomical Twilight 5:17 AM CDT 8:22 PM CDT
Moon 7:04 PM CDT (10/1) 8:41 AM CDT (10/1)
Length of Visible Light 12h 39m
Length of Day
11h 38m
Full, 98% of the Moon is Illuminated
Oct 1
Full
Oct 8
Last Quarter
Oct 15
New
Oct 21
First Quarter
Oct 29
Full

Hourly Weather History & Observations

Time (CDT) Temp. Windchill Dew Point Humidity Pressure Visibility Wind Dir Wind Speed Gust Speed Precip Events Conditions
12:56 AM 45.0 °F 42.6 °F 41.0 °F 86% 29.88 in - NNW 4.6 mph - N/A   Unknown
1:56 AM 46.0 °F 43.9 °F 42.1 °F 86% 29.86 in - NNW 4.6 mph - N/A   Unknown
2:56 AM 45.0 °F 41.8 °F 42.1 °F 90% 29.84 in - NNW 5.8 mph - N/A   Unknown
3:56 AM 44.1 °F 41.5 °F 41.0 °F 89% 29.82 in - NNW 4.6 mph - N/A   Unknown
4:56 AM 43.0 °F - 39.9 °F 89% 29.81 in - Calm Calm - N/A   Unknown
5:56 AM 43.0 °F - 39.9 °F 89% 29.81 in - Calm Calm - N/A   Unknown
6:56 AM 42.1 °F - 39.0 °F 89% 29.81 in - Calm Calm - N/A   Unknown
7:56 AM 44.1 °F - 39.9 °F 85% 29.81 in - Calm Calm - N/A   Unknown
8:56 AM 53.1 °F - 46.9 °F 80% 29.80 in - Calm Calm - N/A   Unknown
9:56 AM 57.9 °F - 51.1 °F 78% 29.81 in - Variable 3.5 mph - N/A   Unknown
10:56 AM 55.9 °F - 52.0 °F 87% 29.81 in - SSW 10.4 mph - N/A   Unknown
11:56 AM 69.1 °F - 48.9 °F 49% 29.80 in - NNW 9.2 mph 19.6 mph N/A   Unknown
12:56 PM 68.0 °F - 50.0 °F 52% 29.79 in - North 11.5 mph 28.8 mph N/A   Unknown
1:56 PM 66.0 °F - 51.1 °F 59% 29.81 in - Variable 6.9 mph - N/A   Unknown
2:56 PM 64.9 °F - 50.0 °F 58% 29.82 in - NNW 10.4 mph 23.0 mph N/A   Unknown
3:56 PM 64.9 °F - 48.9 °F 56% 29.84 in - Variable 5.8 mph - N/A   Unknown
4:56 PM 64.0 °F - 48.9 °F 58% 29.85 in - Variable 3.5 mph - N/A   Unknown
5:56 PM 60.1 °F - 51.1 °F 72% 29.86 in - South 3.5 mph - N/A   Unknown
6:56 PM 57.9 °F - 48.9 °F 72% 29.89 in - Calm Calm - N/A   Unknown
7:56 PM 53.1 °F - 45.0 °F 74% 29.92 in - NNW 4.6 mph - N/A   Unknown
8:56 PM 50.0 °F - 42.1 °F 74% 29.93 in - NNW 4.6 mph - N/A   Unknown
9:56 PM 48.0 °F - 41.0 °F 77% 29.93 in - NNW 4.6 mph - N/A   Unknown
10:56 PM 53.1 °F - 39.0 °F 59% 29.94 in - NNW 6.9 mph - N/A   Unknown
11:56 PM 53.1 °F - 37.0 °F 55% 29.92 in - NNW 8.1 mph - N/A   Unknown